Home   Weather   Tulsa   Past weeks
Flag for USA

Past Weather in Tulsa, Oklahoma, USA — Yesterday and Last 2 Weeks

Now
75 °F

Scattered clouds.


Feels Like: 78 °F
Forecast: 77 / 47 °F
Wind: 17 mph from Southeast

Location: Tulsa International Airport

Current Time: Oct 14, 2019 at 3:55:50 pm

Latest Report: Oct 14, 2019 at 2:53 pm


Visibility: 10 mi

Pressure: 29.88 "Hg

Humidity: 54%

Dew Point: 57 °F

Location of TulsaLocation

Past Weather in Tulsa — Graph

°F

Tulsa Temperature Yesterday

Maximum temperature yesterday: 73 °F (at 3:53 pm)
Minimum temperature yesterday: 43 °F (at 3:53 am)
Average temperature yesterday: 57 °F

High & Low Weather Summary for the Past Weeks

 TemperatureHumidityPressure
High92 °F (Oct 2, 2:53 pm)100% (Oct 6, 6:53 am)30.32 "Hg (Oct 6, 6:53 am)
Low35 °F (Oct 12, 4:53 am)26% (Oct 12, 3:53 pm)29.72 "Hg (Oct 10, 4:53 am)
Average65 °F72%30.02 "Hg
* Reported Sep 29 1:17 pm — Oct 14 1:53 pm, Tulsa. Weather by CustomWeather, © 2019

Note: Actual official high and low records may vary slightly from our data, if they occured in-between our weather recording intervals... More about our weather records

Advertising

Tulsa Weather History for the Previous 24 Hours

Scroll right to see more
 ConditionsComfort  
Time TempWeatherWind HumidityBarometerVisibility
1:53 pm
Mon, Oct 14
75 °FScattered clouds.13 mph52%29.91 "Hg10 mi
12:53 pm73 °FScattered clouds.12 mph53%29.95 "Hg10 mi
11:53 am70 °FScattered clouds.13 mph55%29.98 "Hg10 mi
10:53 am65 °FScattered clouds.12 mph61%30.01 "Hg10 mi
9:53 am60 °FScattered clouds.9 mph72%30.01 "Hg10 mi
8:53 am53 °FScattered clouds.6 mph89%30.02 "Hg10 mi
7:53 am49 °FPassing clouds.6 mph93%30.02 "Hg10 mi
6:53 am49 °FPassing clouds.3 mph93%30.02 "Hg10 mi
5:53 am47 °FPassing clouds.5 mph97%30.00 "Hg10 mi
4:53 am49 °FClear.3 mph93%29.99 "Hg10 mi
3:53 am50 °FClear.5 mph89%29.99 "Hg10 mi
2:53 am51 °FClear.No wind83%29.99 "Hg10 mi
1:53 am52 °FClear.No wind80%29.99 "Hg10 mi
12:53 am53 °FClear.No wind77%29.99 "Hg10 mi
11:53 pm
Sun, Oct 13
54 °FClear.No wind74%30.00 "Hg10 mi
10:53 pm58 °FClear.5 mph62%29.99 "Hg10 mi
9:53 pm59 °FClear.6 mph58%29.98 "Hg10 mi
8:53 pm62 °FClear.6 mph50%29.97 "Hg10 mi
7:53 pm62 °FClear.5 mph52%29.96 "Hg10 mi
6:53 pm64 °FClear.6 mph52%29.94 "Hg10 mi
5:53 pm72 °FSunny.8 mph34%29.93 "Hg10 mi
4:53 pm73 °FPassing clouds.10 mph33%29.92 "Hg10 mi
3:53 pm73 °FSunny.9 mph32%29.93 "Hg10 mi
Weather by CustomWeather, © 2019

See weather overview